Location: Cornospital
(48.0620°N, 3.3837°W)
Time: 20:51:51
(UTC+00:00)

Cosmos 1346 Rocket - Pass Details

Date: 17 June 2021
Orbit: 526 x 551 km, 81.2° (Epoch: 03 August)

Event Time Altitude Azimuth Distance (km) Brightness Sun altitude
Exits shadow 23:45:56 17° 238° (WSW) 1,423 4.7 -18.2°
Maximum altitude 23:48:17 30° 290° (WNW) 1,007 4.4 -18.3°
Drops below altitude 10° 23:51:52 10° 352° (N) 1,833 6.8 -18.3°
Sets 23:54:16 0° 3° (N) 2,735 8.0 -18.4°
